Temp
-9 -9 -9 -9 -10 -10 -10 -10 -10 -11 -11 -11 -12 -12 -12 -13 -13 -14 -14 -15 -15 -15 -15 -15 -16 -16 -16 -16 -17 -17 -17 -18 -18 -18 -17 -17 -17 -17 -17 -16 -15 -14 -14
-9 -9 -9 -10 -10 -10 -10 -10 -11 -11 -11 -11 -12 -12 -12 -13 -13 -14 -14 -15 -15 -15 -15 -15 -15 -15 -16 -16 -17 -17 -17 -18 -18 -18 -18 -17 -17 -17 -17 -17 -16 -15 -15
-9 -9 -10 -10 -10 -10 -10 -10 -11 -11 -11 -12 -12 -12 -13 -13 -14 -14 -15 -15 -15 -15 -15 -15 -15 -15 -16 -16 -17 -17 -17 -17 -18 -18 -18 -17 -17 -17 -17 -17 -16 -15 -15
-9 -9 -10 -10 -10 -10 -10 -11 -11 -11 -11 -12 -12 -13 -13 -13 -14 -15 -15 -15 -15 -15 -15 -15 -15 -16 -16 -16 -17 -17 -18 -18 -18 -18 -17 -17 -17 -17 -17 -16 -16 -15 -15
-9 -10 -10 -10 -10 -10 -10 -11 -11 -11 -11 -12 -12 -13 -13 -13 -14 -15 -15 -14 -14 -15 -15 -15 -15 -16 -16 -16 -16 -16 -17 -17 -17 -18 -17 -17 -17 -17 -16 -16 -16 -16 -15
-10 -10 -10 -10 -10 -10 -10 -11 -11 -11 -11 -12 -12 -13 -13 -13 -15 -15 -14 -14 -14 -14 -14 -15 -15 -15 -16 -16 -16 -16 -17 -17 -17 -17 -17 -17 -17 -17 -16 -16 -16 -15 -15
-10 -10 -10 -10 -10 -10 -10 -11 -11 -11 -11 -12 -12 -12 -13 -14 -15 -14 -14 -14 -14 -14 -14 -14 -15 -15 -15 -16 -16 -16 -16 -17 -17 -17 -17 -17 -17 -17 -16 -16 -15 -15 -15
-10 -10 -10 -10 -10 -10 -11 -11 -11 -11 -11 -12 -12 -12 -13 -14 -15 -15 -14 -13 -13 -14 -14 -14 -14 -15 -15 -15 -15 -16 -16 -16 -17 -17 -17 -17 -17 -17 -16 -16 -16 -16 -15
-10 -10 -10 -10 -10 -10 -11 -11 -11 -11 -11 -12 -12 -12 -13 -14 -15 -15 -13 -13 -13 -13 -13 -14 -14 -14 -14 -15 -15 -15 -16 -16 -16 -16 -17 -16 -17 -17 -16 -16 -15 -15 -15
-10 -10 -10 -10 -10 -10 -11 -11 -11 -11 -11 -11 -12 -12 -13 -14 -14 -15 -14 -13 -13 -13 -14 -14 -14 -14 -14 -14 -15 -15 -15 -16 -16 -16 -17 -17 -17 -17 -16 -16 -16 -16 -15
-9 -10 -10 -10 -10 -10 -10 -11 -11 -11 -11 -11 -12 -13 -13 -14 -14 -14 -15 -15 -15 -14 -14 -13 -13 -14 -14 -14 -15 -15 -15 -15 -16 -16 -16 -17 -17 -16 -16 -16 -15 -16 -15
-9 -10 -10 -10 -10 -10 -10 -10 -11 -11 -11 -11 -12 -12 -13 -13 -14 -14 -14 -14 -14 -14 -14 -13 -13 -14 -14 -14 -14 -15 -15 -15 -15 -16 -16 -17 -17 -17 -16 -16 -16 -16 -15
-9 -9 -10 -10 -10 -10 -10 -10 -11 -11 -11 -11 -12 -12 -12 -13 -13 -12 -13 -13 -14 -13 -13 -13 -13 -13 -13 -14 -14 -15 -15 -15 -15 -15 -16 -16 -17 -17 -16 -16 -15 -15 -15
-8 -9 -9 -10 -10 -10 -10 -10 -11 -11 -11 -12 -12 -12 -13 -12 -12 -12 -12 -12 -12 -13 -13 -13 -14 -13 -14 -15 -15 -16 -16 -16 -15 -15 -15 -16 -16 -17 -16 -15 -15 -15 -15
-8 -9 -9 -9 -10 -10 -10 -10 -11 -11 -11 -12 -12 -12 -12 -12 -12 -12 -11 -12 -12 -12 -12 -12 -13 -13 -13 -14 -15 -16 -16 -16 -16 -15 -15 -15 -15 -16 -15 -15 -15 -15 -14
-8 -8 -9 -9 -10 -10 -10 -11 -11 -11 -11 -12 -12 -12 -12 -12 -11 -11 -11 -11 -11 -11 -11 -11 -12 -13 -13 -14 -15 -16 -16 -16 -16 -16 -15 -15 -15 -15 -15 -14 -14 -14 -14
-7 -8 -8 -9 -9 -10 -10 -11 -11 -11 -11 -11 -12 -12 -11 -11 -11 -11 -11 -11 -11 -11 -11 -11 -12 -12 -13 -14 -14 -15 -16 -16 -16 -15 -15 -15 -14 -14 -14 -14 -13 -13 -13
-7 -8 -8 -9 -9 -10 -10 -11 -11 -11 -11 -11 -12 -12 -11 -11 -11 -11 -11 -11 -11 -11 -11 -11 -12 -12 -13 -14 -14 -15 -15 -15 -15 -15 -14 -14 -13 -13 -14 -13 -13 -13 -13
-7 -8 -8 -9 -9 -9 -10 -10 -10 -11 -11 -11 -11 -11 -11 -11 -11 -11 -11 -11 -11 -11 -11 -12 -12 -12 -12 -14 -13 -14 -14 -14 -14 -14 -14 -13 -13 -12 -13 -13 -12 -12 -12
-7 -8 -8 -9 -9 -9 -10 -10 -10 -10 -11 -11 -11 -11 -11 -11 -11 -11 -11 -12 -12 -12 -12 -12 -12 -12 -12 -12 -13 -13 -13 -13 -13 -13 -12 -12 -12 -12 -11 -12 -11 -11 -11
-7 -7 -8 -8 -9 -9 -10 -10 -10 -10 -11 -11 -11 -11 -11 -11 -12 -12 -12 -12 -12 -12 -12 -12 -12 -12 -12 -12 -12 -13 -12 -12 -12 -12 -11 -11 -12 -11 -11 -11 -11 -11 -11
-7 -7 -8 -8 -9 -9 -9 -10 -10 -10 -11 -11 -11 -11 -11 -11 -12 -12 -12 -12 -13 -13 -12 -12 -12 -12 -12 -12 -12 -12 -12 -12 -11 -11 -11 -10 -11 -11 -11 -10 -11 -11 -11
-7 -7 -7 -8 -8 -9 -9 -9 -10 -10 -10 -11 -11 -11 -11 -11 -12 -12 -12 -12 -13 -13 -12 -12 -12 -12 -12 -12 -12 -12 -12 -11 -12 -12 -11 -10 -10 -11 -11 -11 -10 -10 -9
-7 -7 -7 -8 -8 -9 -9 -9 -10 -10 -10 -10 -11 -11 -11 -12 -12 -12 -12 -12 -12 -13 -13 -12 -12 -12 -12 -12 -12 -12 -12 -11 -12 -12 -12 -10 -9 -10 -10 -11 -11 -10 -8
-7 -7 -7 -8 -8 -8 -9 -9 -9 -10 -10 -10 -11 -11 -11 -11 -12 -12 -12 -12 -12 -12 -12 -13 -12 -12 -12 -12 -12 -12 -12 -11 -11 -11 -11 -11 -11 -9 -9 -9 -9 -9 -9
-6 -7 -7 -8 -8 -8 -9 -9 -9 -9 -10 -10 -10 -11 -11 -11 -11 -11 -11 -12 -12 -12 -12 -12 -13 -12 -12 -12 -12 -12 -11 -11 -11 -11 -11 -10 -11 -10 -10 -9 -8 -8 -8
Height
3091 3085 3080 3074 3068 3062 3055 3047 3039 3031 3023 3015 3006 2998 2989 2981 2972 2963 2955 2947 2940 2934 2929 2925 2921 2916 2913 2910 2908 2905 2904 2902 2901 2902 2903 2904 2905 2905 2906 2908 2911 2914 2918
3090 3084 3079 3073 3066 3060 3052 3045 3037 3029 3021 3012 3003 2994 2986 2977 2968 2959 2950 2942 2935 2930 2925 2920 2916 2912 2908 2905 2903 2901 2899 2898 2897 2897 2899 2900 2900 2900 2902 2903 2905 2908 2912
3089 3084 3078 3072 3065 3058 3051 3043 3036 3028 3019 3010 3000 2991 2982 2973 2965 2955 2945 2936 2930 2925 2920 2916 2911 2907 2904 2900 2898 2896 2894 2893 2892 2892 2893 2895 2895 2896 2897 2898 2899 2902 2906
3088 3083 3077 3071 3064 3057 3049 3042 3034 3026 3017 3008 2998 2989 2980 2971 2961 2950 2941 2932 2926 2920 2915 2910 2906 2902 2899 2896 2893 2891 2890 2889 2888 2887 2887 2888 2889 2890 2890 2891 2894 2897 2900
3088 3082 3076 3070 3063 3056 3049 3041 3033 3025 3016 3007 2998 2989 2979 2969 2958 2947 2937 2928 2922 2916 2911 2906 2901 2897 2893 2890 2887 2886 2884 2883 2883 2882 2883 2883 2883 2884 2885 2887 2889 2892 2895
3087 3081 3075 3069 3062 3055 3048 3041 3033 3025 3016 3006 2998 2988 2978 2968 2957 2944 2934 2926 2919 2913 2908 2902 2897 2891 2887 2883 2880 2878 2877 2876 2876 2876 2877 2878 2879 2880 2881 2882 2885 2887 2891
3086 3080 3074 3068 3062 3055 3048 3041 3034 3025 3016 3007 2998 2988 2978 2968 2956 2943 2933 2924 2918 2911 2904 2898 2891 2885 2880 2876 2873 2871 2870 2869 2869 2870 2870 2871 2873 2875 2876 2877 2881 2884 2887
3085 3080 3075 3068 3062 3055 3049 3042 3034 3025 3017 3007 2998 2989 2979 2969 2956 2943 2934 2925 2917 2909 2901 2893 2887 2881 2876 2871 2867 2864 2863 2862 2863 2863 2864 2865 2867 2869 2871 2874 2877 2880 2883
3086 3081 3075 3069 3063 3056 3050 3043 3035 3027 3018 3009 2999 2990 2981 2970 2957 2944 2933 2924 2915 2907 2899 2891 2882 2876 2870 2865 2861 2859 2857 2856 2856 2856 2857 2859 2861 2863 2866 2869 2873 2877 2880
3087 3081 3075 3069 3064 3057 3051 3044 3036 3029 3021 3012 3003 2994 2984 2973 2960 2948 2934 2923 2914 2904 2896 2888 2879 2872 2865 2859 2855 2852 2851 2850 2851 2851 2852 2853 2855 2857 2861 2865 2869 2873 2877
3087 3082 3077 3071 3066 3059 3053 3046 3039 3032 3024 3016 3007 2998 2988 2975 2963 2952 2940 2926 2915 2905 2894 2885 2875 2867 2860 2853 2849 2846 2845 2844 2845 2846 2847 2848 2850 2852 2856 2861 2865 2870 2874
3089 3083 3078 3073 3068 3062 3056 3049 3043 3036 3029 3021 3012 3002 2991 2979 2968 2958 2944 2933 2923 2910 2898 2888 2877 2866 2856 2849 2844 2841 2839 2839 2840 2842 2844 2845 2847 2849 2853 2857 2862 2867 2871
3091 3085 3080 3075 3070 3065 3060 3053 3047 3040 3032 3024 3015 3004 2995 2985 2976 2965 2954 2943 2932 2919 2905 2892 2880 2868 2856 2847 2840 2836 2834 2833 2835 2838 2840 2842 2845 2847 2849 2854 2858 2863 2867
3093 3088 3083 3078 3074 3068 3063 3056 3050 3043 3035 3027 3019 3009 3000 2991 2980 2969 2960 2952 2942 2929 2910 2897 2884 2871 2857 2846 2839 2834 2831 2831 2832 2834 2837 2840 2843 2845 2847 2851 2856 2860 2865
3096 3091 3086 3081 3076 3071 3066 3060 3052 3046 3039 3030 3022 3014 3006 2994 2983 2977 2968 2958 2946 2933 2917 2904 2889 2873 2861 2849 2840 2835 2831 2830 2830 2832 2835 2838 2841 2844 2846 2850 2855 2859 2864
3099 3094 3089 3084 3079 3074 3069 3063 3057 3051 3043 3036 3030 3023 3015 3008 3000 2990 2980 2969 2955 2938 2923 2908 2894 2880 2865 2852 2843 2838 2834 2833 2832 2832 2834 2837 2841 2844 2847 2850 2855 2859 2864
3103 3098 3093 3089 3084 3078 3073 3068 3063 3057 3051 3045 3039 3033 3025 3016 3008 2998 2988 2975 2961 2946 2930 2915 2902 2889 2875 2861 2849 2841 2837 2835 2835 2834 2835 2837 2840 2844 2848 2851 2856 2860 2864
3107 3103 3098 3094 3089 3084 3080 3075 3070 3065 3059 3053 3046 3039 3032 3024 3015 3006 2997 2986 2968 2953 2938 2925 2913 2900 2886 2871 2856 2847 2845 2842 2840 2837 2837 2839 2842 2845 2849 2853 2857 2862 2867
3111 3107 3103 3099 3094 3090 3085 3081 3076 3070 3065 3059 3053 3047 3039 3029 3019 3012 3001 2986 2973 2962 2950 2938 2927 2914 2900 2883 2869 2859 2853 2848 2847 2844 2842 2842 2845 2848 2851 2854 2859 2864 2869
3114 3111 3107 3103 3099 3094 3090 3086 3081 3076 3070 3064 3057 3049 3043 3036 3027 3014 3005 2996 2985 2974 2963 2952 2941 2928 2914 2898 2884 2872 2864 2858 2853 2851 2849 2848 2848 2852 2856 2859 2862 2867 2872
3116 3113 3110 3106 3102 3099 3095 3090 3085 3080 3074 3068 3061 3054 3047 3039 3030 3021 3012 3003 2994 2984 2974 2965 2954 2941 2927 2913 2901 2891 2881 2869 2863 2860 2858 2857 2856 2856 2860 2864 2867 2871 2875
3119 3116 3112 3109 3106 3102 3098 3094 3089 3084 3079 3073 3067 3061 3054 3046 3038 3030 3021 3012 3002 2993 2985 2975 2964 2951 2939 2927 2915 2905 2895 2885 2876 2870 2868 2867 2866 2866 2866 2868 2872 2876 2880
3120 3117 3114 3111 3108 3105 3101 3097 3093 3089 3084 3078 3073 3067 3060 3053 3045 3037 3029 3021 3013 3006 2998 2988 2977 2965 2955 2945 2933 2921 2910 2901 2893 2883 2877 2877 2876 2874 2874 2876 2878 2881 2885
3121 3118 3116 3113 3110 3107 3104 3100 3096 3092 3087 3083 3078 3072 3066 3059 3052 3045 3038 3030 3023 3015 3007 2998 2988 2978 2969 2959 2951 2941 2931 2920 2910 2901 2892 2885 2884 2885 2885 2885 2885 2888 2891
3121 3119 3116 3114 3111 3108 3105 3102 3099 3095 3090 3086 3081 3076 3070 3065 3059 3053 3046 3038 3032 3024 3016 3008 3000 2991 2981 2973 2966 2958 2950 2939 2928 2919 2909 2902 2895 2893 2895 2895 2895 2897 2899
3121 3119 3117 3114 3112 3109 3106 3104 3101 3097 3093 3089 3085 3080 3075 3070 3064 3058 3053 3047 3040 3032 3025 3017 3010 3003 2996 2987 2978 2971 2964 2956 2945 2934 2927 2920 2912 2907 2902 2901 2903 2904 2906
Wind_Speed
24 24 25 26 27 29 32 34 36 37 38 39 38 36 35 36 38 39 37 34 28 25 24 23 22 22 19 18 18 17 15 14 16 11 11 12 16 18 20 26 28 30 31
23 24 25 26 28 30 33 35 36 37 38 40 38 37 37 37 38 40 38 32 26 23 22 21 20 21 20 18 16 15 15 14 15 15 13 13 16 16 16 16 23 27 28
23 24 25 27 28 31 34 35 36 38 39 39 38 38 39 39 39 38 37 29 24 21 20 20 19 19 19 18 16 14 13 13 14 16 14 14 14 16 18 16 20 21 24
23 24 26 27 29 32 34 35 37 38 39 39 39 40 39 39 41 40 39 29 25 22 20 20 19 19 18 19 18 15 14 14 13 14 14 13 15 18 21 21 19 19 20
23 25 26 28 30 32 33 35 37 38 39 39 39 38 38 40 43 45 37 29 26 23 20 19 19 19 19 18 19 18 17 16 16 15 13 13 15 16 19 20 20 20 20
24 26 27 28 30 31 33 35 36 38 40 39 39 39 40 42 45 45 35 28 26 25 22 19 18 18 18 18 19 19 20 19 18 17 14 16 17 16 19 21 20 19 19
25 26 26 27 29 30 33 34 36 38 40 39 38 40 42 43 48 45 34 28 26 24 23 22 21 19 19 18 17 17 19 20 20 18 20 16 17 20 19 21 18 17 17
26 25 25 26 28 30 32 34 36 38 40 40 40 42 43 46 49 48 37 31 29 28 28 28 26 24 21 18 14 13 15 18 19 19 19 15 15 19 19 20 17 18 20
25 24 25 26 29 29 31 33 35 37 40 41 42 43 44 50 54 52 42 38 37 36 33 30 28 24 19 16 13 10 11 15 18 16 17 17 20 19 18 20 20 20 18
24 24 25 27 29 29 30 32 34 37 39 40 42 42 44 51 57 54 49 45 43 40 38 35 32 29 24 20 15 10 6 11 14 14 13 14 19 21 19 18 19 18 18
25 25 25 27 28 29 29 29 32 34 36 38 40 41 44 52 53 57 51 46 44 42 42 42 39 36 31 27 21 15 8 5 10 11 10 11 14 19 21 18 20 20 19
26 26 26 27 27 28 28 29 31 33 34 36 38 42 46 48 51 60 62 59 51 43 41 40 39 36 31 28 23 17 11 5 6 10 10 8 10 15 20 20 21 21 21
26 27 27 27 26 27 28 29 32 34 36 38 41 45 47 48 47 52 51 58 62 55 48 45 45 42 35 28 24 18 12 6 3 8 11 11 9 11 17 20 22 22 23
27 28 28 27 27 28 30 32 33 35 37 40 44 47 49 50 52 53 52 50 49 58 64 62 55 52 47 35 26 20 14 8 2 5 9 12 12 13 16 19 22 23 24
28 28 28 29 29 29 31 33 36 38 40 43 46 48 51 55 57 55 54 53 52 52 58 65 67 62 57 44 32 24 17 12 7 2 6 11 13 14 16 17 19 20 21
28 28 29 30 31 32 34 35 36 38 40 41 44 45 48 49 50 52 52 53 56 58 57 60 66 71 66 57 40 30 24 19 12 6 5 9 13 14 16 16 16 18 19
26 27 28 30 30 32 32 33 34 36 36 37 38 40 42 44 46 48 50 54 58 61 63 63 61 67 71 65 46 32 24 21 17 11 7 9 13 14 15 17 16 17 19
23 24 26 27 28 29 30 30 30 31 32 34 35 37 38 40 43 46 48 50 57 62 66 67 65 61 68 70 59 37 28 23 19 14 10 9 14 16 15 18 17 16 17
21 21 23 24 25 26 27 27 28 30 32 33 33 34 36 41 44 45 49 55 59 62 64 67 66 64 62 71 71 53 39 31 26 20 15 12 12 15 16 18 19 18 17
19 20 21 21 22 24 24 25 27 29 31 32 34 37 37 38 41 47 50 52 55 58 61 63 65 67 66 65 73 72 54 38 30 26 21 17 14 14 16 17 17 16 16
17 18 19 20 21 22 23 24 26 28 31 33 35 37 39 42 44 47 49 51 53 55 58 60 63 66 69 67 62 68 67 53 35 30 25 22 18 18 17 17 17 18 18
14 16 17 18 19 20 21 23 25 27 29 31 33 35 38 40 43 45 47 50 52 54 55 57 61 64 68 70 68 62 63 65 52 34 28 24 21 17 19 20 19 18 19
12 13 14 16 17 18 20 21 23 25 27 30 31 33 36 38 40 43 45 47 49 49 50 52 55 59 62 65 67 67 61 58 58 52 32 22 20 17 15 18 21 22 21
10 11 12 13 14 15 17 18 20 23 25 27 30 32 34 36 39 40 43 45 46 48 49 50 53 55 57 60 62 63 62 58 52 53 51 33 18 18 18 21 24 25 24
8 9 10 10 12 13 15 16 19 21 23 25 27 30 32 34 36 38 40 42 44 45 46 48 49 51 53 55 56 58 59 60 57 50 48 47 39 26 23 21 20 24 26
8 8 9 10 10 11 12 14 16 19 21 23 25 27 29 31 34 35 37 39 41 43 44 45 47 47 48 50 52 54 56 57 60 57 50 42 43 41 34 23 19 20 20
Wind_Direction
352 351 351 351 353 352 352 353 353 351 352 351 351 350 349 346 344 342 339 335 330 325 321 319 317 316 317 311 303 295 288 285 279 264 259 250 243 248 249 245 238 236 234
353 352 352 354 355 354 355 356 354 354 354 354 353 352 351 349 346 345 342 337 332 328 323 320 317 316 315 314 307 296 283 272 270 270 246 247 255 246 245 247 240 235 231
353 353 355 356 356 355 356 356 357 358 357 356 354 355 353 351 350 347 344 342 335 332 327 325 320 313 308 308 307 298 288 275 263 264 263 247 244 243 241 241 242 235 232
354 355 357 357 357 357 358 358 360 0 359 358 359 358 355 354 353 351 348 345 343 339 333 326 320 313 305 300 297 292 280 275 270 269 269 261 244 238 243 243 242 237 231
356 358 359 358 357 358 0 1 3 3 2 3 2 360 357 357 357 351 352 350 346 343 338 330 322 314 305 294 288 287 280 268 260 260 260 268 260 240 241 245 239 237 232
0 1 1 358 359 1 3 4 5 4 6 6 4 2 2 2 359 358 359 356 350 349 342 334 326 316 308 296 282 277 276 271 265 257 251 252 260 253 235 239 236 233 230
4 4 1 1 2 5 5 6 6 7 10 8 7 8 6 5 3 4 6 1 359 354 347 342 335 324 314 302 288 274 266 264 262 256 252 251 237 245 232 232 230 226 224
8 5 4 5 7 7 7 8 8 10 12 11 11 12 9 10 11 9 11 10 7 3 357 348 341 336 329 318 302 276 259 256 255 253 248 234 229 233 230 228 222 218 219
9 9 9 11 9 9 9 10 10 13 14 13 15 14 14 16 18 11 12 14 13 9 0 356 351 347 342 333 320 296 264 249 247 247 242 237 225 229 230 222 217 216 220
12 16 14 14 12 12 11 11 12 15 16 15 17 16 18 20 22 17 13 14 11 5 2 1 357 353 349 341 332 319 284 246 241 240 240 230 224 224 224 217 213 208 215
19 22 18 16 16 17 15 15 16 17 18 19 20 21 23 23 21 22 26 21 13 6 4 4 359 355 350 344 339 334 321 255 230 224 227 224 218 211 211 207 205 205 211
23 24 22 21 21 22 23 21 22 23 24 25 25 28 28 28 25 23 24 26 26 18 13 10 7 2 353 347 343 341 334 310 214 210 211 220 214 203 203 204 202 202 206
27 25 25 27 27 28 28 28 29 30 30 32 31 32 31 30 29 25 23 22 23 28 27 22 20 16 9 359 353 347 340 327 256 206 203 200 216 194 190 195 196 198 200
31 30 28 32 36 34 32 33 34 35 35 37 35 32 31 30 31 29 25 24 24 23 30 28 24 25 20 14 9 3 357 352 318 200 197 193 193 190 183 188 194 197 199
35 36 34 35 40 38 37 37 39 39 39 39 34 32 32 32 31 29 26 26 25 24 28 25 27 26 25 24 23 23 21 13 21 81 179 186 184 183 173 179 188 194 198
40 41 40 41 43 44 45 45 43 39 38 37 34 33 33 34 32 30 28 28 29 29 29 26 23 26 26 25 27 29 30 31 34 59 134 173 180 177 172 167 173 179 183
43 46 46 47 49 48 47 44 42 40 41 40 36 33 31 31 31 30 29 30 31 31 32 30 27 22 26 27 27 30 30 27 27 46 84 145 168 172 172 164 164 172 176
45 48 50 50 49 47 45 44 44 44 41 40 38 33 30 30 29 30 29 31 34 35 33 32 30 27 23 30 31 32 35 35 34 47 68 113 152 162 165 165 163 168 176
44 46 50 49 48 47 45 43 42 41 40 38 37 33 29 30 29 28 28 31 32 34 34 34 33 32 31 30 34 37 38 36 37 44 64 91 129 151 153 156 160 167 176
41 42 44 45 45 45 44 42 40 39 36 34 33 32 29 30 29 30 31 31 32 33 34 34 35 35 36 35 35 35 35 40 42 48 66 80 104 133 141 135 141 154 163
38 38 40 40 40 41 41 40 37 35 34 33 31 30 28 30 30 30 30 31 31 33 33 33 35 36 38 39 40 38 35 35 40 49 59 70 87 112 135 140 128 133 148
33 33 36 37 35 36 37 36 35 34 33 32 32 31 30 30 30 31 31 30 32 31 31 32 33 35 37 38 39 40 38 36 41 43 51 66 69 95 118 129 134 139 144
29 28 31 33 34 33 32 31 31 30 30 29 29 29 29 29 30 31 32 31 30 33 32 33 34 36 37 39 39 39 39 39 37 42 51 59 63 83 104 123 130 138 141
17 18 21 25 26 27 27 27 27 27 26 25 25 25 26 27 28 29 31 32 31 30 31 34 34 36 36 38 41 42 40 42 43 39 47 56 75 85 99 112 123 125 130
3 2 5 11 15 18 18 17 18 19 19 20 21 22 22 23 26 27 28 29 30 30 30 33 35 36 37 37 39 42 43 42 45 50 42 51 56 83 112 116 116 121 127
346 348 349 351 357 3 6 8 9 10 12 13 14 16 18 19 20 22 25 27 28 29 30 31 33 35 38 38 38 39 42 44 45 47 53 51 54 67 73 88 114 127 127